Location: Kellogg
(38.0159°N, 90.0546°W)
Time: 08:16:43
(UTC+00:00)

S-56A Canister/Altair - Pass Details

Date: 17 September 2024
Orbit: 636 x 2487 km, 38.9° (Epoch: 09 October)

Event Time Altitude Azimuth Distance (km) Brightness Sun altitude
Rises 06:55:26 0° 281° (W) 4,619 - -47.6°
Reaches altitude 10° 06:58:49 10° 269° (W) 3,909 - -47.3°
Maximum altitude 07:07:07 27° 218° (SW) 3,329 - -46.6°
Drops below altitude 10° 07:17:35 10° 168° (SSE) 4,964 - -45.6°
Sets 07:22:40 0° 158° (SSE) 6,099 - -45.1°
